Time,TemperatureF,DewpointF,PressureIn,WindDirection,WindDirectionDegrees,WindSpeedMPH,WindSpeedGustMPH,Humidity,HourlyPrecipIn,Conditions,Clouds,dailyrainin,SoftwareType,DateUTC
2013-04-22 00:03:00,40.0,36.7,30.15,WSW,257,0.0,5.0,88,0.00,,,0.00,VWS V14.01,2013-04-22 05:03:00,
2013-04-22 00:08:00,39.9,36.6,30.16,WSW,247,4.0,7.0,88,0.00,,,0.00,VWS V14.01,2013-04-22 05:08:00,
2013-04-22 00:13:00,39.8,36.5,30.16,West,272,0.0,7.0,88,0.00,,,0.00,VWS V14.01,2013-04-22 05:13:00,
2013-04-22 00:18:00,39.8,36.5,30.16,West,271,0.0,7.0,88,0.00,,,0.00,VWS V14.01,2013-04-22 05:18:00,
2013-04-22 00:23:00,39.8,36.5,30.16,West,272,5.0,7.0,88,0.00,,,0.00,VWS V14.01,2013-04-22 05:23:00,
2013-04-22 00:28:00,39.6,36.1,30.16,West,261,2.0,8.0,87,0.00,,,0.00,VWS V14.01,2013-04-22 05:28:00,
2013-04-22 00:33:00,39.5,36.0,30.16,West,273,0.0,9.0,87,0.00,,,0.00,VWS V14.01,2013-04-22 05:33:00,
2013-04-22 00:38:00,39.4,35.9,30.17,West,273,1.0,9.0,87,0.00,,,0.00,VWS V14.01,2013-04-22 05:38:00,
2013-04-22 00:43:00,39.3,35.8,30.17,West,273,2.0,9.0,87,0.00,,,0.00,VWS V14.01,2013-04-22 05:43:00,
2013-04-22 00:48:00,39.3,36.0,30.17,West,273,0.0,9.0,88,0.00,,,0.00,VWS V14.01,2013-04-22 05:48:00,
2013-04-22 00:54:00,39.2,35.7,30.17,WSW,257,0.0,9.0,87,0.00,,,0.00,VWS V14.01,2013-04-22 05:54:00,
2013-04-22 00:59:00,39.2,35.7,30.17,WSW,257,0.0,9.0,87,0.00,,,0.00,VWS V14.01,2013-04-22 05:59:00,
2013-04-22 01:04:00,39.1,35.6,30.18,West,260,0.0,0.0,87,0.00,,,0.00,VWS V14.01,2013-04-22 06:04:00,
2013-04-22 01:09:00,39.1,35.6,30.18,West,261,2.0,3.0,87,0.00,,,0.00,VWS V14.01,2013-04-22 06:09:00,
2013-04-22 01:14:00,39.1,35.6,30.18,West,260,0.0,3.0,87,0.00,,,0.00,VWS V14.01,2013-04-22 06:14:00,
2013-04-22 01:19:00,39.1,35.6,30.17,West,260,0.0,3.0,87,0.00,,,0.00,VWS V14.01,2013-04-22 06:19:00,
2013-04-22 01:24:00,39.0,35.5,30.17,West,260,0.0,3.0,87,0.00,,,0.00,VWS V14.01,2013-04-22 06:24:00,
2013-04-22 01:29:00,38.9,35.4,30.17,West,260,0.0,3.0,87,0.00,,,0.00,VWS V14.01,2013-04-22 06:29:00,
2013-04-22 01:34:00,38.9,35.4,30.17,West,261,0.0,0.0,87,0.00,,,0.00,VWS V14.01,2013-04-22 06:34:00,
2013-04-22 01:40:00,38.9,35.4,30.16,West,260,0.0,0.0,87,0.00,,,0.00,VWS V14.01,2013-04-22 06:40:00,
2013-04-22 01:45:00,38.7,35.2,30.16,West,260,0.0,0.0,87,0.00,,,0.00,VWS V14.01,2013-04-22 06:45:00,
2013-04-22 01:50:00,38.5,35.3,30.16,West,260,0.0,0.0,88,0.00,,,0.00,VWS V14.01,2013-04-22 06:50:00,
2013-04-22 01:55:00,38.6,35.4,30.16,West,260,0.0,0.0,88,0.00,,,0.00,VWS V14.01,2013-04-22 06:55:00,
2013-04-22 02:00:00,38.6,35.4,30.17,West,260,0.0,0.0,88,0.00,,,0.00,VWS V14.01,2013-04-22 07:00:00,
2013-04-22 02:05:00,38.4,35.2,30.17,West,260,1.0,4.0,88,0.00,,,0.00,VWS V14.01,2013-04-22 07:05:00,
2013-04-22 02:10:00,38.3,35.1,30.17,West,260,2.0,4.0,88,0.00,,,0.00,VWS V14.01,2013-04-22 07:10:00,
2013-04-22 02:15:00,38.2,35.0,30.17,West,261,0.0,4.0,88,0.00,,,0.00,VWS V14.01,2013-04-22 07:15:00,
2013-04-22 02:20:00,38.1,34.9,30.17,West,261,0.0,4.0,88,0.00,,,0.00,VWS V14.01,2013-04-22 07:20:00,
2013-04-22 02:25:00,38.0,35.0,30.17,West,260,0.0,4.0,89,0.00,,,0.00,VWS V14.01,2013-04-22 07:25:00,
2013-04-22 02:31:00,38.1,35.2,30.17,West,260,0.0,4.0,89,0.00,,,0.00,VWS V14.01,2013-04-22 07:31:00,
2013-04-22 02:36:00,38.1,35.2,30.17,West,260,0.0,0.0,89,0.00,,,0.00,VWS V14.01,2013-04-22 07:36:00,
2013-04-22 02:41:00,38.0,35.0,30.17,West,260,0.0,2.0,89,0.00,,,0.00,VWS V14.01,2013-04-22 07:41:00,
2013-04-22 02:46:00,38.0,35.0,30.18,West,260,0.0,2.0,89,0.00,,,0.00,VWS V14.01,2013-04-22 07:46:00,
2013-04-22 02:51:00,37.9,35.0,30.18,West,260,0.0,2.0,89,0.00,,,0.00,VWS V14.01,2013-04-22 07:51:00,
2013-04-22 02:56:00,37.8,34.9,30.18,West,260,0.0,3.0,89,0.00,,,0.00,VWS V14.01,2013-04-22 07:56:00,
2013-04-22 03:01:00,37.7,34.8,30.18,West,260,0.0,3.0,89,0.00,,,0.00,VWS V14.01,2013-04-22 08:01:00,
2013-04-22 03:06:00,37.7,35.0,30.19,West,260,0.0,0.0,90,0.00,,,0.00,VWS V14.01,2013-04-22 08:06:00,
2013-04-22 03:11:00,37.7,34.8,30.19,West,260,0.0,0.0,89,0.00,,,0.00,VWS V14.01,2013-04-22 08:11:00,
2013-04-22 03:17:00,37.7,34.5,30.19,West,261,0.0,0.0,88,0.00,,,0.00,VWS V14.01,2013-04-22 08:17:00,
2013-04-22 03:22:00,37.6,34.4,30.19,West,260,0.0,3.0,88,0.00,,,0.00,VWS V14.01,2013-04-22 08:22:00,
2013-04-22 03:27:00,37.6,34.4,30.20,West,260,0.0,3.0,88,0.00,,,0.00,VWS V14.01,2013-04-22 08:27:00,
2013-04-22 03:32:00,37.6,34.4,30.20,West,260,0.0,1.0,88,0.00,,,0.00,VWS V14.01,2013-04-22 08:32:00,
2013-04-22 03:37:00,37.5,34.3,30.19,West,265,0.0,6.0,88,0.00,,,0.00,VWS V14.01,2013-04-22 08:37:00,
2013-04-22 03:42:00,37.5,34.3,30.18,West,265,0.0,6.0,88,0.00,,,0.00,VWS V14.01,2013-04-22 08:42:00,
2013-04-22 03:47:00,37.3,33.8,30.18,NNE,33,0.0,6.0,87,0.00,,,0.00,VWS V14.01,2013-04-22 08:47:00,
2013-04-22 03:52:00,37.2,34.0,30.18,NNE,29,0.0,6.0,88,0.00,,,0.00,VWS V14.01,2013-04-22 08:52:00,
2013-04-22 03:57:00,37.2,34.0,30.18,NNE,29,0.0,6.0,88,0.00,,,0.00,VWS V14.01,2013-04-22 08:57:00,
2013-04-22 04:02:00,37.2,33.7,30.18,NNE,29,0.0,0.0,87,0.00,,,0.00,VWS V14.01,2013-04-22 09:02:00,
2013-04-22 04:08:00,37.0,33.2,30.18,North,4,0.0,4.0,86,0.00,,,0.00,VWS V14.01,2013-04-22 09:08:00,
2013-04-22 04:13:00,36.9,33.4,30.18,North,8,0.0,4.0,87,0.00,,,0.00,VWS V14.01,2013-04-22 09:13:00,
2013-04-22 04:18:00,36.8,33.3,30.18,North,8,0.0,4.0,87,0.00,,,0.00,VWS V14.01,2013-04-22 09:18:00,
2013-04-22 04:23:00,36.6,33.1,30.18,NW,322,2.0,4.0,87,0.00,,,0.00,VWS V14.01,2013-04-22 09:23:00,
2013-04-22 04:28:00,36.5,33.3,30.18,NW,306,2.0,6.0,88,0.00,,,0.00,VWS V14.01,2013-04-22 09:28:00,
2013-04-22 04:33:00,36.5,33.0,30.18,NW,324,0.0,6.0,87,0.00,,,0.00,VWS V14.01,2013-04-22 09:33:00,
2013-04-22 04:38:00,36.4,33.2,30.18,NNW,333,0.0,5.0,88,0.00,,,0.00,VWS V14.01,2013-04-22 09:38:00,
2013-04-22 04:43:00,36.3,33.1,30.19,NW,308,0.0,5.0,88,0.00,,,0.00,VWS V14.01,2013-04-22 09:43:00,
2013-04-22 04:48:00,36.4,33.2,30.19,NW,308,0.0,5.0,88,0.00,,,0.00,VWS V14.01,2013-04-22 09:48:00,
2013-04-22 04:53:00,36.4,33.2,30.20,NW,308,0.0,5.0,88,0.00,,,0.00,VWS V14.01,2013-04-22 09:53:00,
2013-04-22 04:58:00,36.4,32.9,30.20,WNW,283,0.0,5.0,87,0.00,,,0.00,VWS V14.01,2013-04-22 09:58:00,
2013-04-22 05:04:00,36.4,32.9,30.20,NNW,332,0.0,2.0,87,0.00,,,0.00,VWS V14.01,2013-04-22 10:04:00,
2013-04-22 05:09:00,36.5,33.0,30.19,NW,326,0.0,4.0,87,0.00,,,0.00,VWS V14.01,2013-04-22 10:09:00,
2013-04-22 05:14:00,36.4,32.9,30.20,NW,326,0.0,4.0,87,0.00,,,0.00,VWS V14.01,2013-04-22 10:14:00,
2013-04-22 05:19:00,36.4,32.6,30.20,NW,326,0.0,4.0,86,0.00,,,0.00,VWS V14.01,2013-04-22 10:19:00,
2013-04-22 05:24:00,36.4,32.6,30.20,NW,326,0.0,4.0,86,0.00,,,0.00,VWS V14.01,2013-04-22 10:24:00,
2013-04-22 05:29:00,36.3,32.5,30.19,NW,326,2.0,4.0,86,0.00,,,0.00,VWS V14.01,2013-04-22 10:29:00,
2013-04-22 05:34:00,36.1,32.6,30.19,NW,326,3.0,3.0,87,0.00,,,0.00,VWS V14.01,2013-04-22 10:34:00,
2013-04-22 05:39:00,36.1,32.6,30.19,NW,326,0.0,3.0,87,0.00,,,0.00,VWS V14.01,2013-04-22 10:39:00,
2013-04-22 05:45:00,36.1,32.6,30.20,NW,326,0.0,3.0,87,0.00,,,0.00,VWS V14.01,2013-04-22 10:45:00,
2013-04-22 05:50:00,36.1,32.6,30.20,NNW,343,0.0,3.0,87,0.00,,,0.00,VWS V14.01,2013-04-22 10:50:00,
2013-04-22 05:55:00,35.9,32.7,30.20,NNW,342,0.0,3.0,88,0.00,,,0.00,VWS V14.01,2013-04-22 10:55:00,
2013-04-22 06:00:00,35.9,32.7,30.20,ENE,71,2.0,3.0,88,0.00,,,0.00,VWS V14.01,2013-04-22 11:00:00,
2013-04-22 06:05:00,35.9,32.7,30.20,ENE,66,0.0,0.0,88,0.00,,,0.00,VWS V14.01,2013-04-22 11:05:00,
2013-04-22 06:10:00,36.0,32.8,30.20,NE,41,0.0,1.0,88,0.00,,,0.00,VWS V14.01,2013-04-22 11:10:00,
2013-04-22 06:15:00,36.1,32.9,30.20,NE,46,0.0,1.0,88,0.00,,,0.00,VWS V14.01,2013-04-22 11:15:00,
2013-04-22 06:20:00,36.0,32.5,30.20,NE,43,0.0,1.0,87,0.00,,,0.00,VWS V14.01,2013-04-22 11:20:00,
2013-04-22 06:26:00,36.1,32.9,30.20,NE,44,0.0,1.0,88,0.00,,,0.00,VWS V14.01,2013-04-22 11:26:00,
2013-04-22 06:31:00,36.1,32.6,30.20,NE,43,0.0,1.0,87,0.00,,,0.00,VWS V14.01,2013-04-22 11:31:00,
2013-04-22 06:36:00,36.1,32.6,30.21,NE,47,2.0,2.0,87,0.00,,,0.00,VWS V14.01,2013-04-22 11:36:00,
2013-04-22 06:41:00,36.2,32.7,30.21,NE,47,0.0,2.0,87,0.00,,,0.00,VWS V14.01,2013-04-22 11:41:00,
2013-04-22 06:46:00,36.1,32.0,30.21,ENE,77,1.0,3.0,85,0.00,,,0.00,VWS V14.01,2013-04-22 11:46:00,
2013-04-22 06:51:00,36.0,31.9,30.20,ENE,75,0.0,5.0,85,0.00,,,0.00,VWS V14.01,2013-04-22 11:51:00,
2013-04-22 06:56:00,35.8,31.7,30.21,ENE,75,0.0,5.0,85,0.00,,,0.00,VWS V14.01,2013-04-22 11:56:00,
2013-04-22 07:01:00,35.8,31.7,30.20,ENE,73,0.0,6.0,85,0.00,,,0.00,VWS V14.01,2013-04-22 12:01:00,
2013-04-22 07:06:00,35.9,31.8,30.21,ENE,58,0.0,1.0,85,0.00,,,0.00,VWS V14.01,2013-04-22 12:06:00,
2013-04-22 07:12:00,35.8,31.7,30.21,NE,44,2.0,5.0,85,0.00,,,0.00,VWS V14.01,2013-04-22 12:12:00,
2013-04-22 07:17:00,35.9,31.5,30.20,ENE,64,0.0,5.0,84,0.00,,,0.00,VWS V14.01,2013-04-22 12:17:00,
2013-04-22 07:22:00,35.8,31.1,30.20,NNE,23,0.0,5.0,83,0.00,,,0.00,VWS V14.01,2013-04-22 12:22:00,
2013-04-22 07:27:00,35.8,31.1,30.20,NNE,23,0.0,5.0,83,0.00,,,0.00,VWS V14.01,2013-04-22 12:27:00,
2013-04-22 07:32:00,35.8,31.1,30.20,NE,40,0.0,0.0,83,0.00,,,0.00,VWS V14.01,2013-04-22 12:32:00,
2013-04-22 07:37:00,35.9,31.2,30.20,North,354,0.0,4.0,83,0.00,,,0.00,VWS V14.01,2013-04-22 12:37:00,
2013-04-22 07:42:00,36.2,31.5,30.20,North,354,0.0,4.0,83,0.00,,,0.00,VWS V14.01,2013-04-22 12:42:00,
2013-04-22 07:47:00,36.4,31.1,30.20,ENE,67,0.0,6.0,81,0.00,,,0.00,VWS V14.01,2013-04-22 12:47:00,
2013-04-22 07:52:00,36.6,31.6,30.20,ENE,58,5.0,6.0,82,0.00,,,0.00,VWS V14.01,2013-04-22 12:52:00,
2013-04-22 07:57:00,37.1,31.8,30.19,ENE,57,2.0,6.0,81,0.00,,,0.00,VWS V14.01,2013-04-22 12:57:00,
2013-04-22 08:02:00,37.4,31.5,30.19,ENE,57,0.0,2.0,79,0.00,,,0.00,VWS V14.01,2013-04-22 13:02:00,
2013-04-22 08:07:00,37.3,31.4,30.20,NE,45,0.0,5.0,79,0.00,,,0.00,VWS V14.01,2013-04-22 13:07:00,
2013-04-22 08:12:00,37.5,31.3,30.19,ENE,68,4.0,5.0,78,0.00,,,0.00,VWS V14.01,2013-04-22 13:12:00,
2013-04-22 08:17:00,37.4,31.5,30.19,ENE,63,0.0,5.0,79,0.00,,,0.00,VWS V14.01,2013-04-22 13:17:00,
2013-04-22 08:22:00,37.4,31.5,30.19,ENE,62,0.0,5.0,79,0.00,,,0.00,VWS V14.01,2013-04-22 13:22:00,
2013-04-22 08:28:00,37.5,31.0,30.19,ENE,64,2.0,7.0,77,0.00,,,0.00,VWS V14.01,2013-04-22 13:28:00,
2013-04-22 08:33:00,37.6,31.1,30.19,ENE,65,3.0,3.0,77,0.00,,,0.00,VWS V14.01,2013-04-22 13:33:00,
2013-04-22 08:38:00,37.6,31.4,30.20,ENE,60,0.0,4.0,78,0.00,,,0.00,VWS V14.01,2013-04-22 13:38:00,
2013-04-22 08:43:00,37.8,31.6,30.20,ENE,59,4.0,7.0,78,0.00,,,0.00,VWS V14.01,2013-04-22 13:43:00,
2013-04-22 08:48:00,37.8,30.9,30.20,ENE,62,2.0,7.0,76,0.00,,,0.00,VWS V14.01,2013-04-22 13:48:00,
2013-04-22 08:53:00,37.8,31.2,30.19,ENE,60,2.0,7.0,77,0.00,,,0.00,VWS V14.01,2013-04-22 13:53:00,
2013-04-22 08:58:00,38.3,30.8,30.20,ENE,62,4.0,9.0,74,0.00,,,0.00,VWS V14.01,2013-04-22 13:58:00,
2013-04-22 09:03:00,38.6,31.0,30.19,NE,48,2.0,3.0,74,0.00,,,0.00,VWS V14.01,2013-04-22 14:03:00,
2013-04-22 09:08:00,38.9,31.7,30.19,NE,50,3.0,6.0,75,0.00,,,0.00,VWS V14.01,2013-04-22 14:08:00,
2013-04-22 09:13:00,39.0,31.1,30.18,ENE,60,3.0,7.0,73,0.00,,,0.00,VWS V14.01,2013-04-22 14:13:00,
2013-04-22 09:18:00,39.2,31.3,30.19,ENE,72,4.0,8.0,73,0.00,,,0.00,VWS V14.01,2013-04-22 14:18:00,
2013-04-22 09:23:00,39.2,31.3,30.19,ENE,70,4.0,8.0,73,0.00,,,0.00,VWS V14.01,2013-04-22 14:23:00,
2013-04-22 09:28:00,39.2,31.3,30.19,NE,50,1.0,8.0,73,0.00,,,0.00,VWS V14.01,2013-04-22 14:28:00,
2013-04-22 09:33:00,39.3,31.4,30.19,NE,50,3.0,3.0,73,0.00,,,0.00,VWS V14.01,2013-04-22 14:33:00,
2013-04-22 09:38:00,39.1,31.2,30.19,ENE,73,4.0,4.0,73,0.00,,,0.00,VWS V14.01,2013-04-22 14:38:00,
2013-04-22 09:43:00,39.2,31.3,30.20,NNE,33,0.0,4.0,73,0.00,,,0.00,VWS V14.01,2013-04-22 14:43:00,
2013-04-22 09:48:00,39.8,31.5,30.20,ENE,70,3.0,7.0,72,0.00,,,0.00,VWS V14.01,2013-04-22 14:48:00,
2013-04-22 09:54:00,40.3,31.7,30.20,NE,41,0.0,7.0,71,0.00,,,0.00,VWS V14.01,2013-04-22 14:54:00,
2013-04-22 09:59:00,41.2,32.9,30.19,NE,40,4.0,7.0,72,0.00,,,0.00,VWS V14.01,2013-04-22 14:59:00,
2013-04-22 10:04:00,41.8,33.1,30.20,NE,54,0.0,0.0,71,0.00,,,0.00,VWS V14.01,2013-04-22 15:04:00,
2013-04-22 10:09:00,41.9,31.4,30.20,NE,43,0.0,7.0,66,0.00,,,0.00,VWS V14.01,2013-04-22 15:09:00,
2013-04-22 10:14:00,41.9,32.5,30.20,NE,48,0.0,7.0,69,0.00,,,0.00,VWS V14.01,2013-04-22 15:14:00,
2013-04-22 10:19:00,42.2,32.0,30.20,NE,39,1.0,7.0,67,0.00,,,0.00,VWS V14.01,2013-04-22 15:19:00,
2013-04-22 10:24:00,41.8,32.0,30.20,ENE,58,0.0,7.0,68,0.00,,,0.00,VWS V14.01,2013-04-22 15:24:00,
2013-04-22 10:29:00,41.7,32.3,30.20,East,80,0.0,7.0,69,0.00,,,0.00,VWS V14.01,2013-04-22 15:29:00,
2013-04-22 10:34:00,42.0,32.2,30.21,NE,49,0.0,4.0,68,0.00,,,0.00,VWS V14.01,2013-04-22 15:34:00,
2013-04-22 10:39:00,42.5,32.3,30.22,NW,323,4.0,4.0,67,0.00,,,0.00,VWS V14.01,2013-04-22 15:39:00,
2013-04-22 10:44:00,42.6,32.0,30.21,North,354,0.0,4.0,66,0.00,,,0.00,VWS V14.01,2013-04-22 15:44:00,
2013-04-22 10:49:00,42.8,33.3,30.22,NNE,19,3.0,6.0,69,0.00,,,0.00,VWS V14.01,2013-04-22 15:49:00,
2013-04-22 10:54:00,42.8,33.0,30.21,NNE,24,0.0,6.0,68,0.00,,,0.00,VWS V14.01,2013-04-22 15:54:00,
2013-04-22 10:59:00,42.9,33.1,30.21,NE,48,0.0,6.0,68,0.00,,,0.00,VWS V14.01,2013-04-22 15:59:00,
2013-04-22 11:04:00,42.6,32.4,30.21,NE,37,0.0,1.0,67,0.00,,,0.00,VWS V14.01,2013-04-22 16:04:00,
2013-04-22 11:09:00,42.0,31.9,30.20,NE,45,0.0,7.0,67,0.00,,,0.00,VWS V14.01,2013-04-22 16:09:00,
2013-04-22 11:15:00,42.0,32.9,30.20,NE,35,0.0,7.0,70,0.00,,,0.00,VWS V14.01,2013-04-22 16:15:00,
2013-04-22 11:20:00,42.0,31.9,30.20,NE,45,0.0,7.0,67,0.00,,,0.00,VWS V14.01,2013-04-22 16:20:00,
2013-04-22 11:25:00,41.9,32.1,30.20,NE,44,0.0,7.0,68,0.00,,,0.00,VWS V14.01,2013-04-22 16:25:00,
2013-04-22 11:30:00,41.7,31.9,30.20,ENE,77,3.0,7.0,68,0.00,,,0.00,VWS V14.01,2013-04-22 16:30:00,
2013-04-22 11:35:00,41.6,31.5,30.20,ENE,68,2.0,5.0,67,0.00,,,0.00,VWS V14.01,2013-04-22 16:35:00,
2013-04-22 11:40:00,41.8,31.7,30.19,NE,53,0.0,5.0,67,0.00,,,0.00,VWS V14.01,2013-04-22 16:40:00,
2013-04-22 11:45:00,42.6,33.2,30.18,ENE,58,4.0,5.0,69,0.00,,,0.00,VWS V14.01,2013-04-22 16:45:00,
2013-04-22 11:50:00,43.1,33.3,30.18,East,88,5.0,6.0,68,0.00,,,0.00,VWS V14.01,2013-04-22 16:50:00,
2013-04-22 11:55:00,43.3,32.3,30.17,ENE,73,0.0,8.0,65,0.00,,,0.00,VWS V14.01,2013-04-22 16:55:00,
2013-04-22 12:00:00,43.6,32.2,30.18,East,96,2.0,8.0,64,0.00,,,0.00,VWS V14.01,2013-04-22 17:00:00,
2013-04-22 12:05:00,43.4,32.0,30.18,ENE,68,0.0,5.0,64,0.00,,,0.00,VWS V14.01,2013-04-22 17:05:00,
2013-04-22 12:10:00,43.7,32.7,30.17,ENE,62,3.0,8.0,65,0.00,,,0.00,VWS V14.01,2013-04-22 17:10:00,
2013-04-22 12:15:00,44.0,32.6,30.17,ENE,62,0.0,8.0,64,0.00,,,0.00,VWS V14.01,2013-04-22 17:15:00,
2013-04-22 12:20:00,44.3,32.5,30.17,ENE,73,3.0,10.0,63,0.00,,,0.00,VWS V14.01,2013-04-22 17:20:00,
2013-04-22 12:26:00,44.1,31.5,30.17,ENE,58,3.0,10.0,61,0.00,,,0.00,VWS V14.01,2013-04-22 17:26:00,
2013-04-22 12:31:00,43.6,31.5,30.17,NE,56,3.0,10.0,62,0.00,,,0.00,VWS V14.01,2013-04-22 17:31:00,
2013-04-22 12:36:00,43.2,32.2,30.16,NE,35,4.0,6.0,65,0.00,,,0.00,VWS V14.01,2013-04-22 17:36:00,
2013-04-22 12:41:00,42.9,31.6,30.16,NNE,27,2.0,7.0,64,0.00,,,0.00,VWS V14.01,2013-04-22 17:41:00,
2013-04-22 12:46:00,42.7,31.4,30.15,ENE,70,5.0,8.0,64,0.00,,,0.00,VWS V14.01,2013-04-22 17:46:00,
2013-04-22 12:51:00,42.4,31.1,30.14,NE,52,4.0,8.0,64,0.00,,,0.00,VWS V14.01,2013-04-22 17:51:00,
2013-04-22 12:56:00,42.5,31.6,30.13,NE,50,0.0,8.0,65,0.00,,,0.00,VWS V14.01,2013-04-22 17:56:00,
2013-04-22 13:01:00,42.7,31.4,30.14,NE,40,1.0,8.0,64,0.00,,,0.00,VWS V14.01,2013-04-22 18:01:00,
2013-04-22 13:06:00,42.6,30.9,30.13,NNE,17,0.0,6.0,63,0.00,,,0.00,VWS V14.01,2013-04-22 18:06:00,
2013-04-22 13:11:00,42.2,30.9,30.14,ENE,62,3.0,7.0,64,0.00,,,0.00,VWS V14.01,2013-04-22 18:11:00,
2013-04-22 13:16:00,41.9,30.6,30.15,ENE,73,0.0,7.0,64,0.00,,,0.00,VWS V14.01,2013-04-22 18:16:00,
2013-04-22 13:21:00,41.8,30.9,30.14,ENE,70,4.0,7.0,65,0.00,,,0.00,VWS V14.01,2013-04-22 18:21:00,
2013-04-22 13:26:00,41.7,30.4,30.15,ENE,60,0.0,7.0,64,0.00,,,0.00,VWS V14.01,2013-04-22 18:26:00,
2013-04-22 13:31:00,41.8,31.7,30.15,NE,45,0.0,7.0,67,0.00,,,0.00,VWS V14.01,2013-04-22 18:31:00,
2013-04-22 13:36:00,41.8,32.0,30.14,NE,41,0.0,3.0,68,0.00,,,0.00,VWS V14.01,2013-04-22 18:36:00,
2013-04-22 13:42:00,41.8,31.7,30.14,NE,42,4.0,4.0,67,0.00,,,0.00,VWS V14.01,2013-04-22 18:42:00,
2013-04-22 13:47:00,41.8,31.7,30.14,NE,38,1.0,4.0,67,0.00,,,0.00,VWS V14.01,2013-04-22 18:47:00,
2013-04-22 13:52:00,41.8,32.0,30.14,NE,39,0.0,4.0,68,0.00,,,0.00,VWS V14.01,2013-04-22 18:52:00,
2013-04-22 13:57:00,41.6,31.5,30.15,ENE,64,0.0,5.0,67,0.00,,,0.00,VWS V14.01,2013-04-22 18:57:00,
2013-04-22 14:02:00,41.6,32.2,30.16,NNW,335,0.0,0.0,69,0.00,,,0.00,VWS V14.01,2013-04-22 19:02:00,
2013-04-22 14:07:00,41.7,32.7,30.17,WSW,245,0.0,5.0,70,0.00,,,0.00,VWS V14.01,2013-04-22 19:07:00,
2013-04-22 14:12:00,41.4,31.6,30.16,West,280,0.0,5.0,68,0.00,,,0.00,VWS V14.01,2013-04-22 19:12:00,
2013-04-22 14:17:00,41.2,32.5,30.16,North,359,2.0,5.0,71,0.00,,,0.00,VWS V14.01,2013-04-22 19:17:00,
2013-04-22 14:22:00,40.9,32.6,30.16,North,8,0.0,7.0,72,0.00,,,0.00,VWS V14.01,2013-04-22 19:22:00,
2013-04-22 14:27:00,40.5,32.9,30.16,NW,316,0.0,7.0,74,0.00,,,0.00,VWS V14.01,2013-04-22 19:27:00,
2013-04-22 14:32:00,40.0,32.4,30.16,NNW,342,0.0,2.0,74,0.00,,,0.00,VWS V14.01,2013-04-22 19:32:00,
2013-04-22 14:38:00,39.7,32.8,30.16,NNW,334,0.0,2.0,76,0.00,,,0.00,VWS V14.01,2013-04-22 19:38:00,
2013-04-22 14:43:00,39.6,33.3,30.16,NW,313,0.0,5.0,78,0.00,,,0.00,VWS V14.01,2013-04-22 19:43:00,
2013-04-22 14:48:00,39.2,33.2,30.16,NW,307,3.0,5.0,79,0.00,,,0.00,VWS V14.01,2013-04-22 19:48:00,
2013-04-22 14:53:00,38.7,32.8,30.15,NNE,31,5.0,7.0,79,0.00,,,0.00,VWS V14.01,2013-04-22 19:53:00,
2013-04-22 14:58:00,38.2,32.9,30.15,NNW,331,4.0,7.0,81,0.01,,,0.01,VWS V14.01,2013-04-22 19:58:00,
2013-04-22 15:03:00,37.7,32.7,30.15,WNW,292,7.0,7.0,82,0.01,,,0.01,VWS V14.01,2013-04-22 20:03:00,
2013-04-22 15:08:00,37.1,32.4,30.15,West,262,2.0,9.0,83,0.01,,,0.01,VWS V14.01,2013-04-22 20:08:00,
2013-04-22 15:13:00,36.7,32.6,30.15,North,354,0.0,9.0,85,0.01,,,0.01,VWS V14.01,2013-04-22 20:13:00,
2013-04-22 15:18:00,36.4,32.6,30.15,ENE,58,3.0,9.0,86,0.01,,,0.01,VWS V14.01,2013-04-22 20:18:00,
2013-04-22 15:23:00,36.3,32.5,30.15,NNW,336,2.0,9.0,86,0.01,,,0.01,VWS V14.01,2013-04-22 20:23:00,
2013-04-22 15:28:00,36.2,32.4,30.14,NE,36,0.0,9.0,86,0.01,,,0.01,VWS V14.01,2013-04-22 20:28:00,
2013-04-22 15:33:00,36.3,32.8,30.15,WNW,287,0.0,3.0,87,0.01,,,0.01,VWS V14.01,2013-04-22 20:33:00,
2013-04-22 15:39:00,36.4,32.6,30.15,North,354,0.0,6.0,86,0.01,,,0.01,VWS V14.01,2013-04-22 20:39:00,
2013-04-22 15:44:00,36.5,33.0,30.14,NNE,24,2.0,6.0,87,0.01,,,0.01,VWS V14.01,2013-04-22 20:44:00,
2013-04-22 15:49:00,36.5,32.4,30.14,NNE,25,2.0,8.0,85,0.02,,,0.02,VWS V14.01,2013-04-22 20:49:00,
2013-04-22 15:54:00,36.6,32.5,30.14,ENE,65,4.0,8.0,85,0.02,,,0.02,VWS V14.01,2013-04-22 20:54:00,
2013-04-22 15:59:00,36.5,32.7,30.14,ENE,67,0.0,8.0,86,0.02,,,0.02,VWS V14.01,2013-04-22 20:59:00,
2013-04-22 16:04:00,36.6,32.5,30.13,ENE,73,3.0,5.0,85,0.01,,,0.02,VWS V14.01,2013-04-22 21:04:00,
2013-04-22 16:09:00,36.5,32.4,30.13,NE,53,0.0,5.0,85,0.01,,,0.02,VWS V14.01,2013-04-22 21:09:00,
2013-04-22 16:14:00,36.4,32.6,30.13,NE,38,0.0,5.0,86,0.01,,,0.02,VWS V14.01,2013-04-22 21:14:00,
2013-04-22 16:19:00,36.4,32.3,30.12,East,95,2.0,9.0,85,0.01,,,0.02,VWS V14.01,2013-04-22 21:19:00,
2013-04-22 16:24:00,36.2,32.1,30.12,ENE,60,5.0,9.0,85,0.01,,,0.02,VWS V14.01,2013-04-22 21:24:00,
2013-04-22 16:29:00,36.0,31.9,30.12,NE,47,2.0,9.0,85,0.01,,,0.02,VWS V14.01,2013-04-22 21:29:00,
2013-04-22 16:35:00,35.8,32.0,30.12,ENE,61,1.0,4.0,86,0.01,,,0.02,VWS V14.01,2013-04-22 21:35:00,
2013-04-22 16:40:00,35.4,31.9,30.12,NE,54,1.0,9.0,87,0.01,,,0.02,VWS V14.01,2013-04-22 21:40:00,
2013-04-22 16:45:00,35.0,31.8,30.13,ENE,60,0.0,9.0,88,0.01,,,0.02,VWS V14.01,2013-04-22 21:45:00,
2013-04-22 16:50:00,34.8,31.6,30.13,NE,52,1.0,9.0,88,0.01,,,0.02,VWS V14.01,2013-04-22 21:50:00,
2013-04-22 16:55:00,34.6,31.7,30.12,NE,55,0.0,9.0,89,0.02,,,0.03,VWS V14.01,2013-04-22 21:55:00,
2013-04-22 17:00:00,34.4,31.8,30.12,NNE,33,0.0,9.0,90,0.02,,,0.03,VWS V14.01,2013-04-22 22:00:00,
2013-04-22 17:05:00,34.2,31.6,30.12,NNE,16,0.0,5.0,90,0.01,,,0.03,VWS V14.01,2013-04-22 22:05:00,
2013-04-22 17:10:00,34.0,31.6,30.13,NNE,16,0.0,5.0,91,0.02,,,0.04,VWS V14.01,2013-04-22 22:10:00,
2013-04-22 17:15:00,33.9,31.6,30.13,NW,324,0.0,5.0,91,0.02,,,0.04,VWS V14.01,2013-04-22 22:15:00,
2013-04-22 17:20:00,33.6,31.3,30.13,ENE,65,0.0,5.0,91,0.03,,,0.05,VWS V14.01,2013-04-22 22:20:00,
2013-04-22 17:26:00,33.5,31.2,30.14,WNW,301,0.0,5.0,91,0.04,,,0.06,VWS V14.01,2013-04-22 22:26:00,
2013-04-22 17:31:00,33.4,31.1,30.14,NNE,29,0.0,5.0,91,0.04,,,0.06,VWS V14.01,2013-04-22 22:31:00,
2013-04-22 17:36:00,33.3,31.2,30.14,WNW,283,5.0,5.0,92,0.05,,,0.07,VWS V14.01,2013-04-22 22:36:00,
2013-04-22 17:41:00,33.2,31.1,30.14,WNW,291,0.0,5.0,92,0.06,,,0.08,VWS V14.01,2013-04-22 22:41:00,
2013-04-22 17:46:00,33.2,31.1,30.14,North,350,0.0,5.0,92,0.06,,,0.08,VWS V14.01,2013-04-22 22:46:00,
2013-04-22 17:51:00,33.1,31.0,30.14,NNW,337,1.0,5.0,92,0.07,,,0.09,VWS V14.01,2013-04-22 22:51:00,
2013-04-22 17:56:00,33.1,31.3,30.13,NE,52,0.0,5.0,93,0.08,,,0.10,VWS V14.01,2013-04-22 22:56:00,
2013-04-22 18:01:00,33.0,31.2,30.14,NNE,14,0.0,5.0,93,0.09,,,0.11,VWS V14.01,2013-04-22 23:01:00,
2013-04-22 18:06:00,32.9,31.1,30.14,NW,310,0.0,7.0,93,0.09,,,0.12,VWS V14.01,2013-04-22 23:06:00,
2013-04-22 18:11:00,32.8,31.0,30.14,NNW,330,0.0,7.0,93,0.09,,,0.12,VWS V14.01,2013-04-22 23:11:00,
2013-04-22 18:16:00,32.8,31.0,30.14,West,279,1.0,7.0,93,0.10,,,0.13,VWS V14.01,2013-04-22 23:16:00,
2013-04-22 18:22:00,32.8,31.0,30.14,NNW,335,0.0,7.0,93,0.10,,,0.13,VWS V14.01,2013-04-22 23:22:00,
2013-04-22 18:27:00,32.8,31.0,30.14,WNW,285,0.0,7.0,93,0.11,,,0.14,VWS V14.01,2013-04-22 23:27:00,
2013-04-22 18:32:00,32.7,30.9,30.14,NNE,12,0.0,7.0,93,0.11,,,0.14,VWS V14.01,2013-04-22 23:32:00,
2013-04-22 18:37:00,32.7,30.9,30.14,North,354,0.0,5.0,93,0.09,,,0.15,VWS V14.01,2013-04-22 23:37:00,
2013-04-22 18:42:00,32.7,30.9,30.14,WNW,285,2.0,5.0,93,0.09,,,0.15,VWS V14.01,2013-04-22 23:42:00,
2013-04-22 18:47:00,32.7,31.2,30.14,North,359,0.0,5.0,94,0.09,,,0.15,VWS V14.01,2013-04-22 23:47:00,
2013-04-22 18:52:00,32.8,31.3,30.14,WNW,287,0.0,5.0,94,0.10,,,0.16,VWS V14.01,2013-04-22 23:52:00,
2013-04-22 18:57:00,32.8,31.3,30.14,WNW,298,0.0,5.0,94,0.10,,,0.16,VWS V14.01,2013-04-22 23:57:00,
2013-04-22 19:02:00,32.8,31.3,30.14,NW,320,0.0,2.0,94,0.05,,,0.16,VWS V14.01,2013-04-23 00:02:00,
2013-04-22 19:07:00,32.7,30.9,30.14,NNE,13,0.0,6.0,93,0.06,,,0.17,VWS V14.01,2013-04-23 00:07:00,
2013-04-22 19:13:00,32.6,31.1,30.14,NNE,33,0.0,6.0,94,0.07,,,0.18,VWS V14.01,2013-04-23 00:13:00,
2013-04-22 19:18:00,32.6,31.1,30.14,NNE,19,0.0,6.0,94,0.07,,,0.18,VWS V14.01,2013-04-23 00:18:00,
2013-04-22 19:23:00,32.5,31.0,30.14,North,4,0.0,6.0,94,0.08,,,0.19,VWS V14.01,2013-04-23 00:23:00,
2013-04-22 19:28:00,32.4,30.9,30.14,NW,310,0.0,6.0,94,0.09,,,0.20,VWS V14.01,2013-04-23 00:28:00,
2013-04-22 19:33:00,32.4,30.9,30.14,NW,320,0.0,3.0,94,0.06,,,0.20,VWS V14.01,2013-04-23 00:33:00,
2013-04-22 19:38:00,32.3,30.8,30.15,WSW,251,0.0,3.0,94,0.07,,,0.21,VWS V14.01,2013-04-23 00:38:00,
2013-04-22 19:43:00,32.3,30.8,30.15,NW,316,0.0,3.0,94,0.07,,,0.21,VWS V14.01,2013-04-23 00:43:00,
2013-04-22 19:48:00,32.3,30.8,30.14,WNW,292,0.0,3.0,94,0.08,,,0.22,VWS V14.01,2013-04-23 00:48:00,
2013-04-22 19:53:00,32.3,30.8,30.14,NE,37,0.0,3.0,94,0.08,,,0.22,VWS V14.01,2013-04-23 00:53:00,
2013-04-22 19:58:00,32.3,30.8,30.14,NW,306,0.0,3.0,94,0.08,,,0.22,VWS V14.01,2013-04-23 00:58:00,
2013-04-22 20:03:00,32.3,30.8,30.15,NNW,335,0.0,0.0,94,0.07,,,0.23,VWS V14.01,2013-04-23 01:03:00,
2013-04-22 20:09:00,32.4,30.9,30.15,NNW,335,0.0,0.0,94,0.07,,,0.23,VWS V14.01,2013-04-23 01:09:00,
2013-04-22 20:14:00,32.4,30.9,30.15,NW,316,0.0,2.0,94,0.07,,,0.23,VWS V14.01,2013-04-23 01:14:00,
2013-04-22 20:19:00,32.4,30.9,30.15,NW,313,0.0,2.0,94,0.08,,,0.24,VWS V14.01,2013-04-23 01:19:00,
2013-04-22 20:24:00,32.4,30.9,30.15,NNW,341,1.0,3.0,94,0.08,,,0.24,VWS V14.01,2013-04-23 01:24:00,
2013-04-22 20:29:00,32.4,30.9,30.15,NNW,329,0.0,3.0,94,0.08,,,0.24,VWS V14.01,2013-04-23 01:29:00,
2013-04-22 20:34:00,32.3,30.8,30.15,NNW,328,0.0,3.0,94,0.04,,,0.24,VWS V14.01,2013-04-23 01:34:00,
2013-04-22 20:39:00,32.3,30.8,30.15,NE,35,0.0,3.0,94,0.04,,,0.24,VWS V14.01,2013-04-23 01:39:00,
2013-04-22 20:44:00,32.3,30.8,30.15,WNW,300,0.0,3.0,94,0.04,,,0.24,VWS V14.01,2013-04-23 01:44:00,
2013-04-22 20:49:00,32.3,30.8,30.15,NW,310,0.0,3.0,94,0.05,,,0.25,VWS V14.01,2013-04-23 01:49:00,
2013-04-22 20:54:00,32.3,30.8,30.15,WNW,298,0.0,3.0,94,0.05,,,0.25,VWS V14.01,2013-04-23 01:54:00,
2013-04-22 20:59:00,32.2,30.7,30.16,NE,48,0.0,3.0,94,0.06,,,0.26,VWS V14.01,2013-04-23 01:59:00,
2013-04-22 21:05:00,32.2,30.7,30.15,NNW,348,0.0,2.0,94,0.03,,,0.26,VWS V14.01,2013-04-23 02:05:00,
2013-04-22 21:10:00,32.2,30.7,30.16,NE,49,0.0,2.0,94,0.04,,,0.27,VWS V14.01,2013-04-23 02:10:00,
2013-04-22 21:15:00,32.1,30.6,30.15,SE,140,0.0,3.0,94,0.04,,,0.27,VWS V14.01,2013-04-23 02:15:00,
2013-04-22 21:20:00,32.1,30.6,30.15,NW,318,0.0,3.0,94,0.05,,,0.28,VWS V14.01,2013-04-23 02:20:00,
2013-04-22 21:25:00,32.0,30.5,30.15,North,350,0.0,3.0,94,0.06,,,0.29,VWS V14.01,2013-04-23 02:25:00,
2013-04-22 21:30:00,32.0,30.5,30.15,WNW,294,0.0,3.0,94,0.06,,,0.29,VWS V14.01,2013-04-23 02:30:00,
2013-04-22 21:35:00,32.0,30.5,30.15,NNW,331,0.0,0.0,94,0.06,,,0.30,VWS V14.01,2013-04-23 02:35:00,
2013-04-22 21:40:00,32.0,30.5,30.16,North,4,0.0,0.0,94,0.06,,,0.30,VWS V14.01,2013-04-23 02:40:00,
2013-04-22 21:45:00,32.0,30.5,30.16,NW,310,0.0,0.0,94,0.07,,,0.31,VWS V14.01,2013-04-23 02:45:00,
2013-04-22 21:50:00,32.0,30.5,30.16,WNW,294,0.0,0.0,94,0.08,,,0.32,VWS V14.01,2013-04-23 02:50:00,
2013-04-22 21:55:00,32.0,30.5,30.16,WNW,288,0.0,0.0,94,0.08,,,0.32,VWS V14.01,2013-04-23 02:55:00,
2013-04-22 22:01:00,32.0,30.5,30.16,West,280,0.0,0.0,94,0.09,,,0.33,VWS V14.01,2013-04-23 03:01:00,
2013-04-22 22:06:00,31.9,30.4,30.16,WNW,289,0.0,0.0,94,0.07,,,0.33,VWS V14.01,2013-04-23 03:06:00,
2013-04-22 22:11:00,31.9,30.4,30.15,NNW,339,0.0,0.0,94,0.08,,,0.34,VWS V14.01,2013-04-23 03:11:00,
2013-04-22 22:16:00,31.9,30.4,30.16,NW,321,0.0,0.0,94,0.08,,,0.34,VWS V14.01,2013-04-23 03:16:00,
2013-04-22 22:21:00,31.9,30.4,30.16,WNW,301,0.0,0.0,94,0.09,,,0.35,VWS V14.01,2013-04-23 03:21:00,
2013-04-22 22:26:00,31.9,30.4,30.16,NW,313,0.0,0.0,94,0.09,,,0.35,VWS V14.01,2013-04-23 03:26:00,
2013-04-22 22:31:00,31.8,30.3,30.16,WNW,297,0.0,0.0,94,0.09,,,0.35,VWS V14.01,2013-04-23 03:31:00,
2013-04-22 22:36:00,31.8,30.3,30.17,West,271,0.0,0.0,94,0.05,,,0.35,VWS V14.01,2013-04-23 03:36:00,
2013-04-22 22:41:00,31.8,30.3,30.17,WNW,300,0.0,0.0,94,0.06,,,0.36,VWS V14.01,2013-04-23 03:41:00,
2013-04-22 22:46:00,31.8,30.3,30.17,WNW,295,0.0,0.0,94,0.06,,,0.36,VWS V14.01,2013-04-23 03:46:00,
2013-04-22 22:51:00,31.8,30.3,30.17,NW,312,0.0,0.0,94,0.06,,,0.36,VWS V14.01,2013-04-23 03:51:00,
2013-04-22 22:57:00,31.8,30.3,30.17,NW,321,0.0,0.0,94,0.06,,,0.36,VWS V14.01,2013-04-23 03:57:00,
2013-04-22 23:01:00,31.8,30.3,30.17,NW,322,0.0,0.0,94,0.07,,,0.37,VWS V14.01,2013-04-23 04:01:00,
2013-04-22 23:07:00,31.8,30.3,30.17,NW,326,0.0,0.0,94,0.04,,,0.37,VWS V14.01,2013-04-23 04:07:00,
2013-04-22 23:12:00,31.8,30.3,30.17,NNW,335,0.0,0.0,94,0.05,,,0.38,VWS V14.01,2013-04-23 04:12:00,
2013-04-22 23:17:00,31.8,30.3,30.17,NNW,329,0.0,0.0,94,0.05,,,0.38,VWS V14.01,2013-04-23 04:17:00,
2013-04-22 23:22:00,31.7,30.2,30.17,North,349,0.0,0.0,94,0.06,,,0.39,VWS V14.01,2013-04-23 04:22:00,
2013-04-22 23:27:00,31.8,30.3,30.17,NW,304,0.0,0.0,94,0.06,,,0.39,VWS V14.01,2013-04-23 04:27:00,
2013-04-22 23:32:00,31.7,30.2,30.16,North,354,0.0,0.0,94,0.04,,,0.39,VWS V14.01,2013-04-23 04:32:00,
2013-04-22 23:37:00,31.7,30.2,30.16,NNW,345,0.0,0.0,94,0.04,,,0.39,VWS V14.01,2013-04-23 04:37:00,
2013-04-22 23:42:00,31.7,30.2,30.16,NW,312,0.0,0.0,94,0.05,,,0.40,VWS V14.01,2013-04-23 04:42:00,
2013-04-22 23:47:00,31.7,30.2,30.16,NW,318,0.0,0.0,94,0.05,,,0.40,VWS V14.01,2013-04-23 04:47:00,
2013-04-22 23:52:00,31.7,30.2,30.16,NNW,331,0.0,0.0,94,0.05,,,0.40,VWS V14.01,2013-04-23 04:52:00,
2013-04-22 23:57:00,31.6,30.1,30.16,NW,318,0.0,0.0,94,0.05,,,0.40,VWS V14.01,2013-04-23 04:57:00,